Berlin, NH

11:04 AM EDT on April 22, 2018 (GMT -0400)
Berlin Municipal

Weather History for KBML - May, 2012

Change the Weather History Date:

Wednesday, May 2, 2012

  Actual Average Record
Temperature  
Mean Temperature 46 °F -  
Max Temperature 55 °F 59 °F 84 °F (2001)
Min Temperature 39 °F 30 °F 23 °F (2008)
Degree Days  
Heating Degree Days 18    
Moisture  
Dew Point 40 °F    
Average Humidity 80    
Maximum Humidity 93    
Minimum Humidity 66    
Precipitation  
Precipitation 0.00 in - - ()
Sea Level Pressure  
Sea Level Pressure 30.18 in    
Wind  
Wind Speed 3 mph (SSE)    
Max Wind Speed 13 mph    
Max Gust Speed -    
Visibility 10 miles    
Events      
Averages and records for this station are not official NWS values.
T = Trace of Precipitation, MM = Missing Value Source: NWS Daily Summary

Daily Weather History Graph

Daily Weather History Graph

Search for Another Location

Airport or City:

Astronomy

May. 02, 2012 Rise Set
Actual Time 5:32 AM EDT 7:51 PM EDT
Civil Twilight 5:00 AM EDT 8:23 PM EDT
Nautical Twilight 4:20 AM EDT 9:03 PM EDT
Astronomical Twilight 3:36 AM EDT 9:48 PM EDT
Moon 3:51 PM EDT (5/2) 3:10 AM EDT (5/2)
Length of Visible Light 15h 22m
Length of Day
14h 18m
Waxing Gibbous, 83% of the Moon is Illuminated
May 2
Waxing Gibbous
May 5
Full
May 12
Last Quarter
May 20
New
May 28
First Quarter

Hourly Weather History & Observations

Time (EDT) Temp. Windchill Dew Point Humidity Pressure Visibility Wind Dir Wind Speed Gust Speed Precip Events Conditions
12:52 AM 39.9 °F - 37.0 °F 89% 30.16 in 10.0 mi Calm Calm - N/A   Overcast
1:52 AM 39.9 °F 37.8 °F 37.0 °F 89% 30.17 in 10.0 mi NW 3.5 mph - N/A   Overcast
2:52 AM 39.9 °F - 37.9 °F 93% 30.18 in 10.0 mi Calm Calm - N/A   Overcast
3:10 AM 39.2 °F 37.0 °F 37.4 °F 93% 30.13 in 10.0 mi ESE 3.5 mph - N/A   Overcast
3:52 AM 39.9 °F 37.8 °F 37.9 °F 93% 30.17 in 10.0 mi NNW 3.5 mph - N/A   Overcast
4:52 AM 39.9 °F - 37.0 °F 89% 30.17 in 10.0 mi Calm Calm - N/A   Overcast
5:52 AM 39.9 °F - 37.9 °F 93% 30.19 in 10.0 mi Calm Calm - N/A   Overcast
6:52 AM 39.9 °F - 37.9 °F 93% 30.20 in 10.0 mi Calm Calm - N/A   Overcast
8:52 AM 43.0 °F - 37.9 °F 82% 30.24 in 10.0 mi Calm Calm - N/A   Overcast
9:52 AM 45.0 °F - 37.9 °F 76% 30.23 in 10.0 mi Calm Calm - N/A   Overcast
10:52 AM 48.0 °F - 39.0 °F 71% 30.20 in 10.0 mi Variable 4.6 mph - N/A   Overcast
12:52 PM 52.0 °F - 42.1 °F 69% 30.20 in 10.0 mi Variable 3.5 mph - N/A   Overcast
1:52 PM 53.1 °F - 42.1 °F 66% 30.19 in 10.0 mi South 6.9 mph - N/A   Overcast
2:52 PM 52.0 °F - 43.0 °F 71% 30.19 in 10.0 mi Variable 6.9 mph - N/A   Overcast
3:52 PM 54.0 °F - 43.0 °F 66% 30.17 in 10.0 mi South 6.9 mph - N/A   Overcast
4:47 PM 53.6 °F - 42.8 °F 67% 30.14 in 10.0 mi South 8.1 mph - N/A   Overcast
4:52 PM 53.1 °F - 43.0 °F 69% 30.16 in 10.0 mi South 8.1 mph - N/A   Overcast
5:52 PM 53.1 °F - 43.0 °F 69% 30.17 in 10.0 mi South 8.1 mph - N/A   Scattered Clouds
5:59 PM 51.8 °F - 42.8 °F 71% 30.14 in 10.0 mi South 9.2 mph - N/A   Mostly Cloudy
6:28 PM 48.2 °F - 42.8 °F 82% 30.15 in 10.0 mi SSE 12.7 mph - N/A   Overcast
6:52 PM 48.0 °F - 42.1 °F 80% 30.18 in 10.0 mi South 6.9 mph - N/A   Overcast
7:31 PM 48.2 °F - 41.0 °F 76% 30.15 in 10.0 mi SSE 6.9 mph - N/A   Overcast
7:52 PM 46.9 °F - 41.0 °F 80% 30.18 in 10.0 mi SSE 4.6 mph - N/A   Overcast
8:52 PM 46.9 °F - 41.0 °F 80% 30.20 in 10.0 mi SSE 5.8 mph - N/A   Overcast
9:52 PM 46.0 °F 44.8 °F 41.0 °F 83% 30.19 in 10.0 mi South 3.5 mph - N/A   Overcast
10:52 PM 46.0 °F 41.9 °F 39.9 °F 79% 30.18 in 10.0 mi SSE 8.1 mph - N/A   Overcast
11:26 PM 44.6 °F 41.4 °F 39.2 °F 81% 30.15 in 10.0 mi SE 5.8 mph - N/A   Overcast
11:52 PM 45.0 °F 40.6 °F 39.9 °F 82% 30.18 in 10.0 mi SSE 8.1 mph - N/A   Overcast